Biloxi, MS

12:54 AM CDT on August 26, 2016 (GMT -0500)
Keesler Air Force Base

Weather History for KBIX - December, 2011

Change the Weather History Date:

Friday, December 16, 2011

  Actual Average Record
Temperature  
Mean Temperature 65 °F -  
Max Temperature 73 °F 62 °F 77 °F (2001)
Min Temperature 57 °F 44 °F 23 °F (1963)
Growing Degree Days 15 (Base 50)    
Moisture  
Dew Point 61 °F    
Average Humidity 97    
Maximum Humidity 100    
Minimum Humidity 71    
Precipitation  
Precipitation 0.00 in - - ()
Sea Level Pressure  
Sea Level Pressure 30.17 in    
Wind  
Wind Speed 3 mph (East)    
Max Wind Speed 8 mph    
Max Gust Speed -    
Visibility 4 miles    
Events Fog    
Averages and records for this station are not official NWS values.
T = Trace of Precipitation, MM = Missing Value Source: NWS Daily Summary

Daily Weather History Graph

Daily Weather History Graph

Search for Another Location

Airport or City:

Trip Planner

Search our weather history database for the weather conditions in past years. The results will help you decide how hot, cold, wet, or windy it might be!

Date:

Astronomy

Dec. 16, 2011 Rise Set
Actual Time 6:45 AM CST 4:57 PM CST
Civil Twilight 6:18 AM CST 5:23 PM CST
Nautical Twilight 5:48 AM CST 5:53 PM CST
Astronomical Twilight 5:19 AM CST 6:22 PM CST
Moon 11:05 PM CST (12/16) 10:52 AM CST (12/16)
Length of Visible Light 11h 04m
Length of Day
10h 11m
Waning Gibbous, 64% of the Moon is Illuminated
Dec 16
Waning Gibbous
Dec 17
Last Quarter
Dec 24
New
Jan 1
First Quarter
Jan 9
Full

Hourly Weather History & Observations

Time (CST) Temp. Dew Point Humidity Pressure Visibility Wind Dir Wind Speed Gust Speed Precip Events Conditions
12:55 AM 65.1 °F 65.1 °F 100% 30.14 in 10.0 mi SSE 8.1 mph - N/A   Clear
1:55 AM 64.6 °F 64.6 °F 100% 30.13 in 10.0 mi SSE 6.9 mph - N/A   Clear
2:55 AM 64.4 °F 64.4 °F 100% 30.13 in 10.0 mi SSE 5.8 mph - N/A   Clear
3:55 AM 64.6 °F 64.6 °F 100% 30.13 in 10.0 mi South 4.6 mph - N/A   Clear
4:54 AM 60.8 °F 60.8 °F 100% 30.14 in 6.0 mi Calm Calm - N/A   Clear
4:55 AM 60.6 °F 60.6 °F 100% 30.14 in 6.0 mi Calm Calm - N/A   Clear
5:05 AM 59.0 °F 59.0 °F 100% 30.14 in 2.0 mi NE 3.5 mph - N/A   Clear
5:06 AM 59.0 °F 59.0 °F 100% 30.14 in 1.8 mi NE 3.5 mph - N/A   Clear
5:07 AM 59.0 °F 59.0 °F 100% 30.14 in 1.5 mi NE 3.5 mph - N/A   Clear
5:08 AM 59.0 °F 59.0 °F 100% 30.14 in 1.5 mi NE 3.5 mph - N/A   Clear
5:10 AM 59.0 °F 59.0 °F 100% 30.14 in 1.5 mi NE 3.5 mph - N/A   Clear
5:12 AM 59.0 °F 59.0 °F 100% 30.14 in 1.2 mi Calm Calm - N/A   Clear
5:13 AM 59.0 °F 59.0 °F 100% 30.14 in 1.0 mi Calm Calm - N/A   Clear
5:15 AM 59.0 °F 59.0 °F 100% 30.14 in 1.2 mi Calm Calm - N/A   Clear
5:19 AM 60.8 °F 60.8 °F 100% 30.14 in 1.2 mi Calm Calm - N/A   Clear
5:20 AM 60.8 °F 60.8 °F 100% 30.14 in 1.2 mi Calm Calm - N/A   Clear
5:21 AM 60.8 °F 60.8 °F 100% 30.14 in 1.2 mi Calm Calm - N/A   Clear
5:22 AM 60.8 °F 60.8 °F 100% 30.14 in 1.5 mi Calm Calm - N/A   Clear
5:23 AM 60.8 °F 60.8 °F 100% 30.14 in 2.0 mi Calm Calm - N/A   Clear
5:24 AM 60.8 °F 60.8 °F 100% 30.14 in 2.5 mi Calm Calm - N/A   Clear
5:36 AM 59.0 °F 59.0 °F 100% 30.15 in 2.5 mi NNE 3.5 mph - N/A   Clear
5:37 AM 59.0 °F 59.0 °F 100% 30.15 in 3.0 mi NNE 3.5 mph - N/A   Clear
5:54 AM 59.0 °F 59.0 °F 100% 30.15 in 2.5 mi Calm Calm - N/A   Clear
5:55 AM 59.2 °F 59.2 °F 100% 30.15 in 2.5 mi Calm Calm - N/A   Clear
5:58 AM 59.0 °F 59.0 °F 100% 30.15 in 2.0 mi NE 3.5 mph - N/A   Clear
6:00 AM 59.0 °F 59.0 °F 100% 30.16 in 1.8 mi NNE 3.5 mph - N/A   Clear
6:05 AM 59.0 °F 59.0 °F 100% 30.16 in 1.5 mi Calm Calm - N/A   Clear
6:06 AM 59.0 °F 59.0 °F 100% 30.16 in 1.5 mi NNE 3.5 mph - N/A   Clear
6:09 AM 59.0 °F 59.0 °F 100% 30.16 in 1.8 mi Calm Calm - N/A   Clear
6:10 AM 59.0 °F 59.0 °F 100% 30.16 in 2.0 mi Calm Calm - N/A   Clear
6:11 AM 59.0 °F 59.0 °F 100% 30.16 in 2.5 mi NE 3.5 mph - N/A   Clear
6:13 AM 59.0 °F 59.0 °F 100% 30.16 in 2.0 mi Calm Calm - N/A   Clear
6:30 AM 57.2 °F 57.2 °F 100% 30.16 in 0.2 mi Calm Calm - N/A Fog Fog
6:52 AM 57.2 °F 57.2 °F 100% 30.17 in 0.2 mi Calm Calm - N/A Fog Fog
6:55 AM 58.3 °F 58.3 °F 100% 30.17 in 0.2 mi North 3.5 mph - N/A Fog Fog
7:01 AM 59.0 °F 59.0 °F 100% 30.17 in 0.2 mi Calm Calm - N/A Fog Fog
7:13 AM 59.0 °F 59.0 °F 100% 30.17 in 0.2 mi Calm Calm - N/A Fog Fog
7:55 AM 59.7 °F 59.7 °F 100% 30.19 in 0.2 mi Calm Calm - N/A Fog Fog
8:06 AM 60.8 °F 60.8 °F 100% 30.19 in 0.4 mi Calm Calm - N/A Fog Fog
8:10 AM 60.8 °F 60.8 °F 100% 30.19 in 0.5 mi Calm Calm - N/A Fog Fog
8:14 AM 60.8 °F 60.8 °F 100% 30.19 in 1.0 mi Calm Calm - N/A   Mist
8:16 AM 60.8 °F 60.8 °F 100% 30.19 in 1.5 mi Calm Calm - N/A   Partly Cloudy
8:18 AM 60.8 °F 60.8 °F 100% 30.19 in 2.0 mi Calm Calm - N/A   Partly Cloudy
8:20 AM 60.8 °F 60.8 °F 100% 30.19 in 3.0 mi Calm Calm - N/A   Partly Cloudy
8:55 AM 62.4 °F 62.4 °F 100% 30.22 in 10.0 mi Calm Calm - N/A   Clear
9:55 AM 68.2 °F 68.2 °F 100% 30.21 in 10.0 mi South 5.8 mph - N/A   Clear
10:55 AM 70.7 °F 65.5 °F 83% 30.22 in 10.0 mi SSW 4.6 mph - N/A   Clear
11:55 AM 71.8 °F 65.1 °F 79% 30.20 in 10.0 mi South 5.8 mph - N/A   Clear
12:55 PM 73.6 °F 64.4 °F 73% 30.18 in 10.0 mi SW 3.5 mph - N/A   Clear
1:55 PM 73.8 °F 63.7 °F 71% 30.17 in 10.0 mi SW 6.9 mph - N/A   Clear
2:55 PM 72.1 °F 64.0 °F 76% 30.16 in 10.0 mi SSW 6.9 mph - N/A   Clear
3:55 PM 69.1 °F 64.2 °F 84% 30.16 in 10.0 mi South 3.5 mph - N/A   Partly Cloudy
4:55 PM 68.0 °F 63.9 °F 87% 30.17 in 10.0 mi Calm Calm - N/A   Mostly Cloudy
5:55 PM 66.7 °F 64.4 °F 92% 30.19 in 10.0 mi Calm Calm - N/A   Overcast
6:55 PM 66.4 °F 65.1 °F 96% 30.21 in 10.0 mi Calm Calm - N/A   Overcast
7:48 PM 68.0 °F 66.2 °F 94% 30.22 in 10.0 mi Variable 3.5 mph - N/A   Mostly Cloudy
7:55 PM 67.1 °F 65.7 °F 95% 30.22 in 10.0 mi Variable 3.5 mph - N/A   Mostly Cloudy
8:00 PM 66.2 °F 66.2 °F 100% 30.23 in 10.0 mi Variable 4.6 mph - N/A   Mostly Cloudy
8:26 PM 66.2 °F 64.4 °F 94% 30.23 in 10.0 mi NNE 8.1 mph - N/A   Overcast
8:55 PM 64.9 °F 63.0 °F 93% 30.24 in 10.0 mi Variable 6.9 mph - N/A   Overcast